Skip Page Navigation
NASA JPL Caltech
NASA Logo - Jet Propulsion Laboratory + View the NASA Portal
+ Near-Earth Object (NEO) Program
Search JPL
JPL Home Earth Solar System Stars & Galaxies Technology
JPL Solar System Dynamics
BODIES ORBITS EPHEMERIDES TOOLS PHYSICAL DATA DISCOVERY FAQ SITE MAP
JPL Small-Body Database Browser
Search: [ help ]  
2261 Keeler (1977 HC)
Classification: Main-belt Asteroid          SPK-ID: 2002261
Ephemeris | Orbit Diagram | Orbital Elements | Physical Parameters | Discovery Circumstances ]

[ hide orbit diagram ]
Orbit Diagram
Note: Make sure you have Java enabled on your browser to see the applet. This applet is provided as a 3D orbit visualization tool. The applet was implemented using 2-body methods, and hence should not be used for determining accurate long-term trajectories (over several years or decades) or planetary encounter circumstances. For accurate long-term ephemerides, please instead use our Horizons system.
Orbit Viewer

Additional Notes: the orbits shown in the applet are color coded. The planets are white lines, and the asteroid/comet is a blue line. The bright white line indicates the portion of the orbit that is above the ecliptic plane, and the darker portion is below the ecliptic plane. Likewise for the asteroid/comet orbit, the light blue indicates the portion above the ecliptic plane, and the dark blue the portion below the ecliptic plane.

Orbit Viewer applet originally written and kindly provided by Osamu Ajiki (AstroArts), and further modified by Ron Baalke (JPL).


Orbital Elements at Epoch 2456400.5 (2013-Apr-18.0) TDB
Reference: MPO256879 (heliocentric ecliptic J2000)
 Element Value Uncertainty (1-sigma)   Units 
e 0.2361736 n/a  
a 2.3788674 n/a AU
q 1.8170417 n/a AU
i 22.73800 n/a deg
node 102.78238 n/a deg
peri 99.35699 n/a deg
M 293.57287 n/a deg
tp 2456647.7844257
(2013-Dec-21.28442570)
n/a JED
period 1340.1511288
3.67
n/a
n/a
d
yr
n 0.26862642 n/a deg/d
Q 2.9406931 n/a AU
  Orbit Determination Parameters
   # obs. used (total)      698  
   first obs. used      1977-??-??  
   last obs. used      2013-03-24  
   # oppositions      16  
   planetary ephem.      DE403  
   condition code      0  
   fit RMS      0.46  
   data source      MPC:mpn  
   producer      MPCLINUX  

Additional Information
 T_jup = 3.399 

Ephemeris | Orbit Diagram | Orbital Elements | Physical Parameters | Discovery Circumstances ]

Physical Parameter Table
Parameter Symbol Value Units Sigma Reference Notes
absolute magnitude H 12.8 mag n/a PDS3 (MPC 17265)  
rotation period rot_per 23.10 h n/a Asteroid Lightcurve DataBase (Rev. 2013-May-01) Result based on less than full coverage, so that the period may be wrong by 30 percent or so.
Published Reference List:
[Warner, B.D.; Pravec, P.; Kusnirak, P.; Pray, D.P.; et al. (2011) Minor Planet Bul. 38, 3.]

2261 Keeler (1977 HC)          Discovered 1977-Apr-20 by Klemola, A. R. at Mount Hamilton
Reference: DISCOVERY.DBLast Updated: 2003-08-29
Ephemeris | Orbit Diagram | Orbital Elements | Physical Parameters | Discovery Circumstances ]
ABOUT SSD CREDITS/AWARDS PRIVACY/COPYRIGHT GLOSSARY LINKS
FirstGov 2013-May-22 17:13 UT
(server date/time)  
NASA Home Page
Site Manager:   Donald K. Yeomans
Webmaster  Alan B. Chamberlin